Погода в Бурабае

Казахстан     53°04′56″N   70°18′24″E
темп.,
°C
ветер,
м/с
пор.,
м/с
влажн.,
%
обл.,
%
осадки,
мм/ч
давл.,
гПа
погр.,
м
2 марта, вт
вт200:00−18з229979 0.1 101722
03:00−19зюз2210078 0.0 101820
06:00−19зюз229870 0.0 101820
09:00−16зюз1196100 0.1 101862
12:00−12юз239198 0.1 1017261
15:00−10юз3490100 0.0 1016371
18:00−12юз3694100 0.1 1016308
21:00−16юз359690 0.0 1016100
3 марта, ср
ср300:00−17юз479783 0.1 1016147
03:00−19юз5109874 0.0 1016251
06:00−20ююз6159771 0.0 1017277
09:00−20ююз7159870 0.0 1016265
12:00−15ююз8139485 0.0 1016335
15:00−11юз91690100 0.0 1014524
18:00−8юз101788100 0.1 1014711
21:00−6юз91888100 0.0 1013814
4 марта, чт
чт400:00−4юз91690100 0.1 1011897
03:00−4юз91689100 0.1 1010913
06:00−3юз91790100 0.1 1009866
09:00−2юз101792100 0.3 10081122
12:00−2юз111891100 0.4 10071122
15:00−1юз111793100 0.4 10061235
18:00−2ююз91588100 0.7 1005983
21:00−3юз8158997 0.1 1005833
5 марта, пт
пт500:00−4зюз8129496 0.4 1007777
03:00−10зюз61394100 0.1 1010415
06:00−13зюз5129381 0.1 1013293
09:00−13юз616890 0.0 1016366
12:00−8юз12208730 0.0 1015702
15:00−6юз14238798 0.0 1014787
18:00−5юз132385100 0.0 1014804
21:00−6юз132186100 0.0 1014874
6 марта, сб
сб600:00−6юз122186100 0.1 1015856
03:00−6юз111987100 0.0 1014763
06:00−7юз10188998 0.1 1014610
09:00−7юз9179085 0.0 1014540
12:00−5зюз8139190 0.1 1015644
15:00−3зюз71190100 0.1 1017755
18:00−4зюз6989100 0.1 1018615
21:00−7ююз4895100 0.0 1018180